GAM213A EGKK-ZZZZ

Flight info

Callsign GAM213A
Flight time N/A
Altitude
Route
Aircraft EC35

Departure

Time 2026-05-06 18:02
Airport London Gatwick Airport (EGKK)

Arrival

Time N/A
Airport ZZZZ
Time Latitude Longitude Altitude Speed Heading
2026-05-06 17:40 51.14719 -0.17480 200 ft 0 kts 246°
2026-05-06 17:50 51.14726 -0.17461 205 ft 6 kts
2026-05-06 17:50 51.14762 -0.17422 206 ft 7 kts 347°
2026-05-06 17:50 51.14799 -0.17489 204 ft 9 kts 272°
2026-05-06 17:51 51.14802 -0.17599 202 ft 9 kts 301°
2026-05-06 17:51 51.14844 -0.17665 203 ft 8 kts 349°
2026-05-06 17:51 51.14878 -0.17683 202 ft 2 kts 350°
2026-05-06 17:51 51.14883 -0.17684 198 ft 0 kts 350°
2026-05-06 18:01 51.14898 -0.17690 203 ft 10 kts 353°
2026-05-06 18:01 51.14993 -0.17695 203 ft 10 kts 75°
2026-05-06 18:01 51.14998 -0.17691 212 ft 4 kts 86°
2026-05-06 18:01 51.14973 -0.17254 356 ft 79 kts 121°
2026-05-06 18:02 51.14340 -0.17046 680 ft 102 kts 185°
2026-05-06 18:02 51.13639 -0.17162 962 ft 102 kts 190°
2026-05-06 18:02 51.13113 -0.17911 1032 ft 109 kts 258°
2026-05-06 18:02 51.12990 -0.19074 1141 ft 104 kts 263°
2026-05-06 18:03 51.12869 -0.20201 1228 ft 103 kts 262°
2026-05-06 18:03 51.12729 -0.21320 1267 ft 105 kts 261°
2026-05-06 18:03 51.12390 -0.22346 1292 ft 111 kts 212°
2026-05-06 18:03 51.11682 -0.22248 1296 ft 102 kts 128°
2026-05-06 18:04 51.11568 -0.21293 1320 ft 91 kts 57°
2026-05-06 18:04 51.12103 -0.20940 1342 ft 92 kts 345°
2026-05-06 18:04 51.12437 -0.21844 1290 ft 110 kts 263°
2026-05-06 18:04 51.11894 -0.22613 1261 ft 116 kts 179°
2026-05-06 18:05 51.11337 -0.21939 1167 ft 104 kts 87°
2026-05-06 18:05 51.11782 -0.21347 1130 ft 96 kts 344°
2026-05-06 18:05 51.12103 -0.22234 1083 ft 99 kts 281°
2026-05-06 18:05 51.12324 -0.23152 1058 ft 82 kts 312°
2026-05-06 18:06 51.12740 -0.23646 1043 ft 69 kts 346°
2026-05-06 18:06 51.13176 -0.23753 1024 ft 59 kts
2026-05-06 18:06 51.13566 -0.23647 1009 ft 56 kts 20°
2026-05-06 18:06 51.13934 -0.23383 985 ft 61 kts 33°
2026-05-06 18:07 51.14215 -0.22822 935 ft 69 kts 58°
2026-05-06 18:07 51.14379 -0.22054 900 ft 76 kts 71°
2026-05-06 18:07 51.14502 -0.21230 873 ft 76 kts 74°
2026-05-06 18:07 51.14608 -0.20405 850 ft 77 kts 75°
2026-05-06 18:08 51.14612 -0.19559 911 ft 83 kts 118°
2026-05-06 18:08 51.14082 -0.19178 984 ft 93 kts 180°
2026-05-06 18:08 51.13424 -0.19220 1066 ft 96 kts 182°
2026-05-06 18:08 51.12826 -0.19696 1099 ft 100 kts 229°
2026-05-06 18:09 51.12562 -0.20695 1153 ft 97 kts 262°
2026-05-06 18:09 51.12402 -0.21727 1207 ft 98 kts 256°
2026-05-06 18:09 51.12053 -0.22664 1232 ft 104 kts 213°
2026-05-06 18:09 51.11390 -0.22729 1240 ft 99 kts 147°
2026-05-06 18:10 51.11006 -0.21956 1259 ft 89 kts 92°
2026-05-06 18:10 51.11130 -0.21085 1297 ft 80 kts 46°
2026-05-06 18:10 51.11624 -0.20726 1327 ft 83 kts 360°
2026-05-06 18:10 51.12117 -0.21248 1300 ft 97 kts 303°
2026-05-06 18:11 51.12063 -0.22348 1312 ft 106 kts 239°
2026-05-06 18:11 51.11411 -0.22764 1287 ft 107 kts 161°
2026-05-06 18:11 51.10969 -0.21991 1305 ft 90 kts 88°
2026-05-06 18:11 51.11147 -0.21125 1317 ft 83 kts 44°
2026-05-06 18:12 51.11634 -0.20644 1339 ft 82 kts 12°
2026-05-06 18:12 51.12169 -0.20927 1400 ft 87 kts 321°
2026-05-06 18:12 51.12318 -0.21933 1312 ft 110 kts 256°
2026-05-06 18:12 51.11721 -0.22609 1223 ft 113 kts 169°
2026-05-06 18:13 51.11089 -0.22009 1243 ft 102 kts 140°
2026-05-06 18:13 51.10508 -0.21409 1310 ft 100 kts 149°
2026-05-06 18:13 51.09890 -0.20898 1346 ft 101 kts 147°
2026-05-06 18:13 51.09254 -0.20303 1277 ft 110 kts 144°
2026-05-06 18:14 51.08615 -0.19678 1291 ft 106 kts 142°
2026-05-06 18:14 51.08012 -0.19010 1290 ft 105 kts 142°
2026-05-06 18:14 51.07431 -0.18313 1300 ft 104 kts 140°
2026-05-06 18:14 51.06856 -0.17591 1316 ft 104 kts 140°
2026-05-06 18:15 51.06288 -0.16884 1333 ft 105 kts 142°
2026-05-06 18:15 51.05720 -0.16218 1327 ft 106 kts 142°
2026-05-06 18:15 51.05134 -0.15503 1307 ft 106 kts 140°
2026-05-06 18:15 51.04561 -0.14769 1283 ft 105 kts 137°
2026-05-06 18:16 51.03983 -0.14036 1245 ft 106 kts 140°
2026-05-06 18:16 51.03406 -0.13326 1248 ft 105 kts 140°
2026-05-06 18:16 51.02822 -0.12632 1266 ft 105 kts 141°
2026-05-06 18:16 51.02232 -0.11924 1243 ft 107 kts 140°
2026-05-06 18:17 51.01625 -0.11212 1214 ft 108 kts 141°
2026-05-06 18:17 51.01008 -0.10519 1193 ft 107 kts 143°
2026-05-06 18:17 51.00359 -0.09930 1205 ft 107 kts 153°
2026-05-06 18:17 50.99691 -0.09418 1219 ft 106 kts 150°
2026-05-06 18:18 50.99049 -0.08872 1228 ft 105 kts 153°
2026-05-06 18:18 50.98315 -0.08665 1236 ft 108 kts 181°
2026-05-06 18:18 50.97562 -0.08737 1248 ft 109 kts 194°
2026-05-06 18:18 50.96818 -0.08821 1290 ft 107 kts 183°
2026-05-06 18:19 50.96062 -0.08987 1319 ft 110 kts 193°
2026-05-06 18:19 50.95584 -0.09797 1319 ft 103 kts 271°
2026-05-06 18:19 50.95910 -0.10615 1328 ft 85 kts 349°
2026-05-06 18:19 50.96357 -0.10200 1339 ft 86 kts 67°
2026-05-06 18:20 50.96119 -0.09347 1485 ft 88 kts 134°
2026-05-06 18:20 50.95692 -0.08706 1574 ft 85 kts 109°
2026-05-06 18:20 50.95735 -0.07824 1569 ft 82 kts 59°
2026-05-06 18:20 50.96196 -0.07336 1547 ft 85 kts 12°
2026-05-06 18:21 50.96746 -0.07720 1520 ft 96 kts 320°
2026-05-06 18:21 50.96984 -0.08765 1489 ft 107 kts 279°
2026-05-06 18:21 50.96690 -0.09882 1443 ft 116 kts 230°
2026-05-06 18:21 50.95980 -0.10392 1432 ft 114 kts 185°
2026-05-06 18:22 50.95231 -0.10082 1398 ft 109 kts 141°
2026-05-06 18:22 50.94706 -0.09274 1389 ft 108 kts 139°
2026-05-06 18:22 50.93966 -0.09228 1401 ft 111 kts 210°
2026-05-06 18:22 50.93397 -0.10001 1473 ft 105 kts 229°
2026-05-06 18:23 50.92842 -0.10790 1485 ft 110 kts 227°
2026-05-06 18:23 50.92232 -0.11555 1494 ft 110 kts 219°
2026-05-06 18:23 50.91613 -0.12282 1510 ft 111 kts 220°
2026-05-06 18:23 50.90984 -0.12978 1522 ft 112 kts 216°
2026-05-06 18:24 50.90319 -0.13670 1519 ft 115 kts 217°
2026-05-06 18:24 50.89639 -0.14360 1491 ft 117 kts 214°
2026-05-06 18:24 50.88947 -0.15052 1432 ft 120 kts 215°
2026-05-06 18:24 50.88265 -0.15816 1378 ft 119 kts 221°
2026-05-06 18:25 50.87664 -0.16722 1331 ft 118 kts 228°
2026-05-06 18:25 50.87069 -0.17590 1301 ft 117 kts 227°
2026-05-06 18:25 50.86460 -0.18474 1226 ft 121 kts 225°
2026-05-06 18:25 50.85859 -0.19398 1142 ft 119 kts 236°
2026-05-06 18:26 50.85517 -0.20552 1104 ft 114 kts 260°
2026-05-06 18:26 50.85404 -0.21740 1147 ft 103 kts 273°
2026-05-06 18:26 50.85339 -0.22843 1175 ft 102 kts 266°
2026-05-06 18:26 50.85216 -0.23969 1173 ft 105 kts 261°
2026-05-06 18:27 50.85066 -0.25103 1084 ft 107 kts 260°
2026-05-06 18:27 50.84917 -0.26267 908 ft 107 kts 263°
2026-05-06 18:27 50.84770 -0.27399 708 ft 102 kts 262°
2026-05-06 18:27 50.84584 -0.28412 524 ft 92 kts 253°
2026-05-06 18:28 50.84294 -0.29234 321 ft 80 kts 218°
2026-05-06 18:28 50.83858 -0.29577 169 ft 63 kts 207°
2026-05-06 18:28 50.83525 -0.29782 74 ft 33 kts 209°
2026-05-06 18:28 50.83393 -0.29749 49 ft 25 kts 97°
2026-05-06 18:29 50.83434 -0.29461 55 ft 28 kts 74°
2026-05-06 18:29 50.83485 -0.29192 26 ft 14 kts 129°
2026-05-06 18:29 50.83481 -0.29164 12 ft 0 kts 163°